OBJECT E, 63523

Orbit data source: Space-Track

You're viewing an Uncataloged Satellite

Recently launched and/or uncataloged satellites may have evolving metadata. Metadata may include but not limited to: Owner, Maufacturer, Bus, Motor, and Mission.

OBJECT E, 63523 is a satellite owned by Tsinghua (CN) in LEO that was launched on Thu, 29 Apr 2021 UTC via a CHANG ZHENG 7 launch vehicle from the Wenchang Satellite Launch Center (WSC). Unknown objects in Earth's orbit typically refer to objects detected orbiting the Earth but have not yet been identified or cataloged. These objects could be anything from previously untracked satellites, spent rocket stages, debris from satellite collisions, or even natural meteoroids temporarily captured by Earth's gravity.

Loading next visibility...
Identifier
63523, 2021-035E
Orbit
LEO
Country
Flag of CNCN / PRC
Related business
Manufacturer
Tsinghua
Mission
Amateur Imaging
Bus & Motor
NAXING, Unknown motor
Mass
20 kg wet, 20 kg dry
Launch date (UTC)
2021-04-29 (4 years ago)
Launch vehicle
CHANG ZHENG 7
Launch site
Wenchang Satellite Launch Center (WSC)
Object type
Unknown
Shape & HBR
Box, 0.4 m
Radar Cross Section
0.240 m², Medium (>0.1 m² and < 1m²)

Expand to show TLE details & history
Last TLE update: 4 days ago

TLE from 4 days ago
0 OBJECT E
1 63523U 21035E   25295.48168279  .00119804  00000-0  96497-3 0  9999
2 63523  41.4573 310.6200 0001585  62.8683 297.2320 15.69748210 31045
Epoch: 2025-10-22T11:33Z
TLE epoch observation values (Epoch: 2025-10-22T11:33:37.393Z)
Latitude
-0.00002°
Longitude
106.0595°
Altitude
358.726 km
Speed
7.696 km/s
True Right ascension
20h 42m 28s
True Declination
0° 00' 00"
Sunlit
Object was in daylight at epoch
Visualization orbit readout
Latitude
Unknown
Longitude
Unknown
Altitude
Unknown
Speed
Unknown
Apparent Right ascension
Unknown
Apparent Declination
Unknown
Sunlit
N/A
Visualization observer readout
Local Sidereal Time
00:46:24
Azimuth
Unknown
Elevation
Unknown
Doppler factor
Unknown
Orbital elements
Apogee altitude
362.929 km
Perigee altitude
360.793 km
Semi-major axis
6,739.998 km
Eccentricity
0.00016
Inclination
41.4573°
RAAN
310.62°
Arg. of periapsis
62.8683°
True anomaly
297.21585°
Mean anomaly
297.232°
Eccentric anomaly
297.22392°
Mean motion
3.92241 °/min
Orbital period
91.78 mins
BSTAR
0.00096497
Loading maneuver chart data...
Computing Atmospheric mass density...
Loading historical data...
Loading historical data...
Loading historical data...
Loading historical data...
Loading historical data...
Loading historical data...
Loading historical data...

Documentation

Showing up to 5 results
|